CW7369 Weather Reports


Display with metric or nautical units.
time (UTC)temp
F
wind
direction
speed
MPH
gust
MPH
rain 1hr
in
rain 24hr
in
rain mn
in
humidity
%
barometer
mb
20260507094555 57 304 0.0 0.0 0.00 0.00 0.00 82 1016.1
20260507093040 57 305 0.0 0.0 0.00 0.00 0.00 81 1016.3
20260507091528 57 304 0.0 0.0 0.00 0.00 0.00 81 1016.4
20260507090030 57 305 0.0 0.0 0.00 0.00 0.00 81 1016.5
20260507084512 58 304 0.0 0.0 0.00 0.00 0.00 81 1016.7
20260507083103 58 305 0.0 0.0 0.00 0.00 0.00 81 1016.9
20260507083002 58 304 0.0 0.0 0.00 0.00 0.00 81 1016.9
20260507081552 58 304 0.0 0.0 0.00 0.00 0.00 81 1016.9
20260507080017 58 304 0.0 0.0 0.00 0.00 0.00 81 1016.9
20260507074518 59 304 0.0 0.0 0.00 0.00 0.00 81 1017.0
20260507073100 59 304 0.0 0.0 0.00 0.00 0.00 81 1017.1
20260507071552 59 304 0.0 0.0 0.00 0.00 0.00 81 1017.1
20260507070023 59 305 0.0 1.0 0.00 0.00 0.00 81 1017.2
20260507064510 60 304 0.0 2.0 0.00 0.00 0.00 81 1017.4
20260507063038 60 305 1.0 4.0 0.00 0.00 0.00 80 1017.5
20260507061559 60 287 1.0 3.0 0.00 0.00 0.00 80 1017.9
20260507061502 60 287 1.0 3.0 0.00 0.00 0.00 80 1017.4
20260507060021 60 272 1.0 3.0 0.00 0.00 0.00 80 1017.4
20260507054550 60 272 1.0 2.0 0.00 0.00 0.00 79 1017.4
20260507053030 60 273 0.0 3.0 0.00 0.00 0.00 78 1017.5
20260507051521 60 273 1.0 4.0 0.00 0.00 0.00 78 1017.5
20260507050011 60 328 0.0 2.0 0.00 0.00 0.00 77 1017.4
20260507044514 60 328 0.0 4.0 0.00 0.00 0.00 77 1017.4
20260507043058 61 286 2.0 3.0 0.00 0.00 0.00 77 1017.2
20260507041546 61 293 1.0 6.0 0.00 0.00 0.00 77 1017.1
20260507040014 61 308 3.0 7.0 0.00 0.00 0.00 77 1017.0
20260507034559 62 295 3.0 7.0 0.00 0.00 0.00 76 1017.0
20260507033020 62 299 2.0 6.0 0.00 0.00 0.00 75 1016.7
20260507031606 62 298 3.0 9.0 0.00 0.00 0.00 72 1016.7
20260507031502 62 296 3.0 9.0 0.00 0.00 0.00 72 1016.6
20260507030031 63 308 2.0 8.0 0.00 0.00 0.00 71 1016.5
20260507024520 64 302 4.0 8.0 0.00 0.00 0.00 69 1016.4
20260507023010 64 306 2.0 7.0 0.00 0.00 0.00 67 1016.2
20260507021556 65 267 5.0 10.0 0.00 0.00 0.00 65 1016.2
20260507020100 66 284 3.0 11.0 0.00 0.00 0.00 63 1016.1
20260507014532 67 292 2.0 11.0 0.00 0.00 0.00 61 1016.1
20260507013057 67 267 5.0 11.0 0.00 0.00 0.00 60 1016.0
20260507011534 68 285 4.0 10.0 0.00 0.00 0.00 58 1016.0
20260507010052 68 301 3.0 9.0 0.00 0.00 0.00 59 1016.0
20260507004532 69 306 4.0 12.0 0.00 0.00 0.00 57 1015.8
20260507003026 69 288 4.0 10.0 0.00 0.00 0.00 58 1015.8
20260507001518 70 290 4.0 11.0 0.00 0.00 0.00 57 1015.7
20260507000008 69 290 3.0 11.0 0.00 0.00 0.00 59 1015.6
20260506234552 69 267 4.0 13.0 0.00 0.00 0.00 59 1015.6
20260506233052 69 261 6.0 13.0 0.00 0.00 0.00 59 1015.6
20260506231525 70 309 7.0 14.0 0.00 0.00 0.00 59 1015.6
20260506230023 70 283 6.0 16.0 0.00 0.00 0.00 59 1015.5
20260506224530 70 296 7.0 13.0 0.00 0.00 0.00 58 1015.6
20260506223015 71 232 5.0 13.0 0.00 0.00 0.00 56 1015.9
20260506221533 71 256 7.0 17.0 0.00 0.00 0.00 57 1015.9
20260506220004 71 261 6.0 16.0 0.00 0.00 0.00 57 1016.0
20260506214548 72 245 6.0 12.0 0.00 0.00 0.00 56 1016.1
20260506213020 71 253 5.0 16.0 0.00 0.00 0.00 58 1016.3
20260506211536 71 222 8.0 14.0 0.00 0.00 0.00 58 1016.3
20260506210036 70 252 10.0 17.0 0.00 0.00 0.00 58 1016.4
20260506204505 70 276 8.0 16.0 0.00 0.00 0.00 59 1016.4
20260506203137 71 241 5.0 14.0 0.00 0.00 0.00 57 1016.5
20260506201531 72 268 7.0 15.0 0.00 0.00 0.00 56 1016.6
20260506200019 72 277 5.0 16.0 0.00 0.00 0.00 56 1016.6
20260506194555 71 317 7.0 12.0 0.00 0.00 0.00 55 1016.8
20260506193043 71 257 5.0 10.0 0.00 0.00 0.00 54 1016.9
20260506191529 72 245 3.0 9.0 0.00 0.00 0.00 53 1016.9
20260506190057 71 256 7.0 15.0 0.00 0.00 0.00 53 1017.0
20260506184553 70 21 4.0 10.0 0.00 0.00 0.00 52 1017.1
20260506183009 70 323 3.0 9.0 0.00 0.00 0.00 52 1017.3
20260506181553 68 288 3.0 11.0 0.00 0.00 0.00 54 1017.5
20260506180009 68 219 2.0 11.0 0.00 0.00 0.00 55 1017.7
20260506174531 67 299 2.0 10.0 0.00 0.00 0.00 57 1017.9
20260506173100 66 243 3.0 11.0 0.00 0.00 0.00 59 1017.8
20260506173001 66 246 4.0 11.0 0.00 0.00 0.00 59 1018.0
20260506171521 65 348 2.0 6.0 0.00 0.00 0.00 61 1018.0
20260506170021 63 288 3.0 9.0 0.00 0.00 0.00 65 1018.1
20260506164552 63 269 3.0 8.0 0.00 0.00 0.00 65 1018.0
20260506163019 63 39 3.0 8.0 0.00 0.00 0.00 66 1018.1
20260506161531 62 355 3.0 7.0 0.00 0.00 0.00 66 1018.1
20260506160031 62 360 0.0 5.0 0.00 0.00 0.00 67 1018.2
20260506154555 61 70 3.0 6.0 0.00 0.00 0.00 67 1018.1
20260506153016 60 63 2.0 5.0 0.00 0.00 0.00 68 1018.2
20260506151541 59 32 4.0 6.0 0.00 0.00 0.00 69 1018.2
20260506150007 58 17 1.0 5.0 0.00 0.05 0.00 72 1018.2
20260506144525 57 49 3.0 4.0 0.00 0.05 0.00 74 1018.1
20260506143026 56 49 3.0 5.0 0.00 0.05 0.00 76 1018.0
20260506141512 54 59 3.0 6.0 0.00 0.05 0.00 78 1018.2
20260506140018 54 48 1.0 3.0 0.00 0.05 0.00 79 1018.2
20260506134516 53 40 2.0 4.0 0.00 0.05 0.00 80 1018.0
20260506133036 53 46 1.0 3.0 0.00 0.05 0.00 80 1017.9
20260506131536 52 48 1.0 4.0 0.00 0.05 0.00 79 1017.6
20260506130057 52 57 2.0 4.0 0.00 0.05 0.00 79 1017.5
20260506124520 53 40 1.0 4.0 0.00 0.05 0.00 79 1017.4
20260506123040 53 44 1.0 5.0 0.00 0.05 0.00 79 1017.3
20260506121508 53 50 2.0 5.0 0.00 0.05 0.00 80 1017.1
20260506120026 53 31 0.0 0.0 0.00 0.06 0.00 80 1017.1
20260506114510 54 30 0.0 0.0 0.00 0.06 0.00 79 1017.1
20260506113042 54 32 0.0 0.0 0.00 0.06 0.00 79 1017.1
20260506111520 54 31 0.0 0.0 0.00 0.06 0.00 80 1017.1
20260506110028 54 31 0.0 0.0 0.00 0.06 0.00 80 1017.1
20260506104516 53 32 1.0 3.0 0.00 0.06 0.00 80 1017.2
20260506103040 53 280 0.0 0.0 0.00 0.06 0.00 80 1017.2
20260506101534 53 280 0.0 2.0 0.00 0.06 0.00 81 1017.1
20260506100025 53 280 0.0 0.0 0.00 0.06 0.00 80 1016.9